{"data":{"norad_id":62422,"epoch":"2026-09-21T09:44:21.714432Z","epoch_age_seconds":96392,"freshness":"FRESH","line1":"1 62422U 24249P   26264.40580688  .00016521  00000+0  60832-3 0  9992","line2":"2 62422  43.0042 296.7360 0002280 279.2674  80.7920 15.27592193 97650","mean_motion":15.27592193,"eccentricity":0.000228,"inclination_deg":43.0042,"raan_deg":296.736,"arg_perigee_deg":279.2674,"mean_anomaly_deg":80.792,"bstar":0.00060832,"rev_number":9765,"period_min":94.265996291328,"perigee_km":481.44824394847,"apogee_km":484.57692815971,"semimajor_km":6861.1495860541,"source":"CELESTRAK","updated_at":"2026-09-22T09:00:49.577996Z"}}